TIME,DELAY(SENSOR),PRES,OXYGEN,RAWTEMP,T(OPTODE),TCPHASE,FLUOR,BETA(BETA700),BETA(BETA412),BETA(BETA440),CDOM,C(CSC),ED(ED411.90),ED(ED443.80),ED(ED489.40),ED(ED554.70),LU(LU412.20),LU(LU443.80),LU(LU489.40),LU(LU555.00),COMP,TILTX,TILTY,CHECK
1367189401,5804,814.9299926757812000,246.0003051757812500,555.1879272460938000,5.8064980506896970,36.3318901062011700,53,114,99,81,80,11025,2146963739,2147520786,2147295305,2147519268,2147087478,2146918637,2147731776,2147120438,1370,0,8,13173
1367192997,5805,908.0100097656250000,271.6229858398437500,573.1926879882812000,5.2392849922180180,35.4489707946777340,53,106,97,79,80,11034,2146963922,2147522633,2147299318,2147523776,2147087661,2146919341,2147733147,2147117796,2208,-1,8,54879
1367196597,5803,945.7199707031250000,275.9822998046875000,581.3937988281250000,4.9800209999084470,35.4059791564941400,52,103,98,79,80,11037,2146961280,2147522486,2147299419,2147526454,2147089792,2146919259,2147731565,2147120393,3543,0,9,62044
1367200197,5806,987.4500122070312000,285.7839965820312500,587.3579711914062000,4.7911047935485840,35.0919189453125000,52,108,100,81,80,11028,2146964507,2147520384,2147297197,2147525933,2147089152,2146913984,2147733248,2147122724,62,-1,8,3173
1367203797,5804,990.0200195312500000,280.3599853515625000,587.8184814453125000,4.7765059471130370,35.3337516784668000,51,108,98,79,80,11033,2146962916,2147521755,2147300480,2147525440,2147088868,2146917549,2147735049,2147115081,2975,0,8,28409
1367207397,5807,986.3300170898438000,283.4504089355469000,588.0983276367188000,4.7676348686218260,35.2054290771484400,52,103,99,80,79,11034,2146961435,2147522870,2147301668,2147526473,2147086555,2146913554,2147737234,2147120941,490,0,8,21732
1367210997,5804,995.3099975585938000,290.5299072265625000,588.8253784179688000,4.7445759773254395,34.9188308715820300,52,103,98,80,79,11028,2146963803,2147519963,2147302637,2147528786,2147085101,2146917202,2147738029,2147119286,3187,0,8,23006
1367214597,5806,999.2800292968750000,282.7081909179687500,588.8676147460938000,4.7432398796081540,35.2513694763183600,52,104,98,80,81,11026,2146966025,2147521974,2147300946,2147526372,2147084781,2146919634,2147736877,2147119424,3469,-1,9,26991
1367218197,5806,991.5100097656250000,286.3089904785156000,588.9771118164062000,4.7397651672363280,35.0993690490722660,52,110,98,80,80,11019,2146962130,2147521472,2147298285,2147524534,2147085952,2146914953,2147736658,2147122441,92,0,8,8067
1367221797,5803,994.7899780273438000,281.7528076171875000,589.9799194335938000,4.7079558372497560,35.3133811950683600,52,107,99,80,80,10969,2146961435,2147521664,2147301595,2147528100,2147087552,2146916571,2147735241,2147120969,3533,-1,8,50522
1367225397,5803,997.7000122070312000,290.2427062988281000,590.0729980468750000,4.7050042152404785,34.9538993835449200,52,107,98,79,81,10973,2146965659,2147521453,2147302601,2147528146,2147086528,2146919753,2147737371,2147118601,3503,0,9,26974
1367228997,5807,1003.1400146484375000,291.4861145019531000,589.1021728515625000,4.7357978820800780,34.8837699890136700,52,105,97,80,80,10973,2146964507,2147519981,2147299538,2147528448,2147087872,2146917001,2147738642,2147122569,441,-1,8,22590
1367232597,5803,1001.0999755859375000,285.6485900878906000,589.9536743164062000,4.7087898254394530,35.1459884643554700,52,106,98,80,80,10969,2146962797,2147523510,2147303149,2147529051,2147086253,2146917220,2147734171,2147121435,3447,0,8,20175
1367236197,5802,998.8300170898438000,285.8822021484375000,590.2991943359375000,4.6978278160095215,35.1425209045410160,52,110,98,80,79,10971,2146962121,2147523108,2147300644,2147525403,2147091035,2146913005,2147735296,2147119414,2844,0,8,62382
1367239797,5807,994.2999877929688000,290.0132141113281000,591.9746704101562000,4.6446552276611330,34.9994506835937500,52,111,102,81,80,10963,2146965796,2147522870,2147302592,2147528804,2147085476,2146921106,2147734912,2147119780,462,0,8,45165
1367243397,5806,1000.1599731445312000,286.8382873535156000,592.8734130859375000,4.6161251068115230,35.1498603820800800,52,109,101,80,81,10960,2146963867,2147518464,2147301604,2147525558,2147083702,2146919113,2147738907,2147118582,3089,-1,9,357
1367246997,5804,997.3099975585938000,285.0804138183594000,593.6586303710938000,4.5911941528320310,35.2395210266113300,52,115,101,80,79,10954,2146960822,2147521764,2147300992,2147526125,2147089965,2146913462,2147738770,2147119542,3122,0,8,58854
1367250597,5806,1010.6400146484375000,297.2467956542969000,594.2149047851562000,4.5735239982604980,34.7416801452636700,52,113,101,81,80,10953,2146966354,2147519442,2147301668,2147528118,2147087067,2146915154,2147738523,2147120521,278,0,8,7485
1367254197,5806,1001.4000244140625000,290.9357910156250000,592.9896240234375000,4.6124358177185060,34.9795913696289060,51,110,99,81,80,10956,2146961161,2147518912,2147303204,2147525714,2147088073,2146919286,2147738313,2147119076,3210,0,8,32175
1367257797,5807,1009.7299804687500000,295.1807861328125000,593.6832885742188000,4.5904059410095215,34.8163299560546900,52,110,99,80,80,10952,2146960036,2147519844,2147299739,2147526381,2147088841,2146918317,2147736649,2147120082,402,0,8,59074
1367261397,5810,1002.2500000000000000,290.5267944335937500,593.5607299804688000,4.5943031311035160,35.0071983337402340,51,111,99,81,80,10949,2146959085,2147516973,2147303369,2147527826,2147087972,2146919405,2147736557,2147120667,37,0,8,50308
1367264997,5807,1009.8200073242188000,296.2221984863281000,593.2213745117188000,4.6050758361816410,34.7653694152832000,52,109,99,80,80,10952,2146961353,2147519963,2147300470,2147522441,2147090779,2146918345,2147732781,2147122852,300,0,8,50790
1367268597,5806,1010.8099975585938000,295.7625122070312500,592.5407714843750000,4.6266841888427730,34.7714309692382800,52,109,101,81,80,10953,2146962569,2147516150,2147304685,2147525284,2147089371,2146918610,2147740114,2147121097,2845,-1,8,28744
1367272197,5806,1005.2199707031250000,287.8181152343750000,591.7208862304688000,4.6527118682861330,35.0865592956543000,52,109,101,79,80,10955,2146963629,2147522587,2147302354,2147525504,2147086043,2146915894,2147734601,2147121481,3354,0,8,49841
1367275797,5806,1013.7299804687500000,294.5046997070312500,591.4970703125000000,4.6598148345947270,34.8036689758300800,51,107,98,79,80,10954,2146965568,2147521389,2147305554,2147524571,2147089718,2146918043,2147733275,2147119204,290,0,8,11240
1367279397,5806,1002.6500244140625000,287.2107849121094000,591.4600219726562000,4.6609940528869630,35.1077690124511700,52,106,97,81,80,10953,2146961417,2147521938,2147299748,2147523510,2147085065,2146918893,2147736822,2147119506,3349,0,8,275
1367282997,5805,1007.9899902343750000,287.3385925292969000,592.9583740234375000,4.6134238243103030,35.1299209594726560,52,107,99,80,79,10950,2146961453,2147523602,2147299565,2147523620,2147089481,2146918281,2147734774,2147119305,3562,0,9,40536
1367286597,5807,1009.3400268554688000,294.1789855957031000,592.4053955078125000,4.6309828758239750,34.8335914611816400,51,110,99,79,80,10952,2146963126,2147520612,2147300507,2147525101,2147089152,2146917312,2147735570,2147117357,3402,0,8,27230
1367290197,5804,1011.7399902343750000,294.5491943359375000,591.5477294921875000,4.6582069396972660,34.8028602600097660,52,106,99,80,80,10948,2146960091,2147520740,2147303396,2147527003,2147090066,2146919597,2147736630,2147120027,3055,0,8,24162
1367293797,5806,1011.3300170898438000,289.4580993652344000,590.8867187500000000,4.6791858673095700,35.0020713806152340,52,108,100,80,81,10948,2146962788,2147522240,2147303396,2147522486,2147089773,2146916041,2147740562,2147121417,3356,-1,8,41974
1367297397,5805,1015.4299926757812000,292.5952148437500000,590.2659301757812000,4.6988849639892580,34.8597106933593750,52,106,99,78,81,10939,2146959561,2147521581,2147298916,2147526738,2147089874,2146918299,2147736886,2147117668,3408,0,8,56497
1367300997,5804,1007.0300292968750000,286.4873046875000000,590.8773803710938000,4.6794819831848145,35.1270790100097660,52,107,100,79,80,10940,2146963757,2147520969,2147304987,2147525878,2147085494,2146915446,2147733421,2147117860,3353,0,8,60881
1367304597,5804,1015.1300048828125000,292.6824035644531000,589.5349121093750000,4.7220749855041500,34.8422317504882800,52,104,101,80,79,10937,2146959652,2147520603,2147300553,2147526875,2147086793,2146919158,2147732370,2147119305,3511,0,8,40522
1367308197,5809,1014.0100097656250000,287.9682006835937500,589.5228881835938000,4.7224521636962890,35.0391197204589840,53,106,97,79,80,10939,2146962578,2147520475,2147301924,2147520768,2147086793,2146914953,2147739830,2147118710,3571,-1,8,49306
1367311797,5805,1012.2800292968750000,283.8669128417969000,589.5761108398438000,4.7207660675048830,35.2147483825683600,52,104,99,80,80,10935,2146962441,2147519314,2147300992,2147528905,2147084928,2146918829,2147738669,2147120667,3381,-1,8,10941
1367315397,5810,1017.3599853515625000,290.5852966308594000,589.6715698242188000,4.7177348136901855,34.9319801330566400,51,106,98,79,80,10935,2146959808,2147516516,2147300790,2147524214,2147086043,2146912082,2147733860,2147119186,86,-1,8,61565
1367318997,5804,1018.9799804687500000,288.2008972167969000,588.2669067382812000,4.7622871398925780,35.0064315795898440,52,110,98,81,80,10934,2146962934,2147518473,2147303734,2147523264,2147090532,2146917558,2147734619,2147120475,3504,-1,8,61429
1367322597,5806,1011.8599853515625000,288.1478881835937500,587.6516723632812000,4.7817940711975100,34.9967803955078100,51,106,100,79,80,10928,2146964333,2147518290,2147301860,2147525531,2147085613,2146911771,2147730715,2147119753,527,0,9,51902
1367326197,5803,1014.7000122070312000,290.4298095703125000,588.8256225585938000,4.7445697784423830,34.9227790832519500,52,119,98,79,80,10931,2146963492,2147518134,2147301284,2147525394,2147085531,2146919222,2147732809,2147119881,3204,0,8,36070
1367329797,5808,1012.0999755859375000,287.9418945312500000,588.6245117187500000,4.7509498596191410,35.0235099792480500,52,105,99,80,80,10932,2146964690,2147521837,2147302363,2147523355,2147086427,2146914304,2147733787,2147121965,3587,0,8,11782
1367332554,5808,1016.9600219726562000,290.7214965820312500,589.1983032226562000,4.7327499389648440,34.9176483154296900,52,104,99,80,80,11040,2146962688,2147517577,2147302464,2147524562,2147088310,2146918747,2147735616,2147118518,515,0,8,52131
